Hourly Data Report for September 25, 2017

All times are specified in Local Standard Time (LST). Add 1 hour to adjust for Daylight Saving Time where and when it is observed.

KOUCHIBOUGUAC CS
NEW BRUNSWICK

46°47'00.000" N
65°01'00.000" W
21.00 m
8102328
71670
AKC

Download Data

Hourly Data (September 2017)
Hourly Data Report for September 25, 2017
Temp Definition
°C
Dew Point Temp Definition
°C
Rel Hum Definition
%
Wind Dir Definition
10's deg

Wind Spd Definition
km/h
Visibility Definition
km
Stn Press Definition
kPa
Hmdx Definition


Wind Chill Definition


Weather Definition


TIME
00:00 13.4 12.7 95   0   101.61     LegendNANA
01:00 12.3 11.8 97   0   101.61     LegendNANA
02:00 11.2 10.8 97 15 1   101.63     LegendNANA
03:00 10.3 10.1 98   0   101.66     LegendNANA
04:00 9.9 9.6 98   0   101.68     LegendNANA
05:00 10.4 10.2 99 0 1   101.71     LegendNANA
06:00 11.5 11.4 99   0   101.74     LegendNANA
07:00 12.3 12.2 99 29 1   101.76     LegendNANA
08:00 13.8 13.5 98   0   101.77     LegendNANA
09:00 16.6 13.7 84 12 6   101.79     LegendNANA
10:00 17.2 13.2 78 17 8   101.78     LegendNANA
11:00 20.1 13.9 67 17 9   101.75     LegendNANA
12:00 21.1 14.8 67 15 5   101.65 25   LegendNANA
13:00 22.8 15.0 62 17 6   101.57 27   LegendNANA
14:00 24.3 16.0 60 18 13   101.46 29   LegendNANA
15:00 25.8 16.9 58 19 8   101.37 31   LegendNANA
16:00 26.7 17.6 57 20 8   101.30 32   LegendNANA
17:00 26.1 17.9 61 20 7   101.28 32   LegendNANA
18:00 24.0 17.7 68 20 7   101.24 30   LegendNANA
19:00 23.0 17.9 73 20 7   101.22 29   LegendNANA
20:00 23.5 18.2 72 20 10   101.19 30   LegendNANA
21:00 22.8 18.1 75 20 11   101.15 29   LegendNANA
22:00 22.6 18.2 76 22 10   101.13 29   LegendNANA
23:00 22.3 18.3 78 21 9   101.08 29   LegendNANA

Notes on Data Quality.

Legend

  • E = Estimated
  • M = Missing
  • NA = Not Available
  • ‡ = Partner data that is not subject to review by the National Climate Archives
Date modified: